Flag for Kazakhstan Weather past 2 weeks in Qyzylorda, Kazakhstan

Now
25 °F

Partly sunny.


Feels Like: 10 °F
Forecast: 11 / 30 °F
Wind: 22 mph from North

Location: Kzyl-Orda

Current Time: Mar 29, 2015 at 5:01:24 PM

Latest Report: Mar 29, 2015 at 4:30 PM


Visibility: N/A

Pressure: 30.42 "Hg

Humidity: 39%

Dew point: 3 °F

Location of QyzylordaLocation

Historic Weather in Qyzylorda — Graph

°F

Qyzylorda temperature yesterday

Maximum temperature yesterday: 52 °F (at 3:00 PM)
Minimum temperature yesterday: 28 °F (at 6:00 AM)
Average temperature yesterday: 38 °F

Past Weeks' High & Low Weather Summary

 TemperatureHumidityPressure
High75 °F (Mar 22, 3:00 PM)100% (Mar 16, 4:00 AM)30.60 "Hg (Mar 16, 4:00 AM)
Low14 °F (Mar 29, 7:30 AM)19% (Mar 20, 6:30 PM)29.47 "Hg (Mar 24, 1:00 AM)
Average41 °F61%30.23 "Hg
* Reported Mar 14 4:00 PM — Mar 29 4:00 PM, Qyzylorda, Weather by CustomWeather, © 2015

Note: Actual official high and low records may vary slightly from our data, if they occured in-between our weather recording intervals... More about our weather records

Advertising

Qyzylorda weather history for previous 24 hours

 ConditionsComfort  
Time TempWeatherWind HumidityBarometerVisibility
4:00 PM
Sun, Mar 29
25 °FPartly sunny.17 mph39%30.42 "HgN/A
3:30 PM25 °FPartly sunny.17 mph39%30.42 "HgN/A
3:00 PM25 °FPartly sunny.20 mph42%30.45 "HgN/A
2:30 PM25 °FPartly sunny.22 mph39%30.42 "HgN/A
2:00 PM25 °FPartly sunny.20 mph42%30.45 "HgN/A
1:30 PM23 °FPartly sunny.17 mph42%30.45 "HgN/A
1:00 PM23 °FScattered clouds.17 mph46%30.45 "HgN/A
12:30 PM23 °FScattered clouds.15 mph50%30.45 "HgN/A
12:00 PM21 °FScattered clouds.17 mph49%30.45 "HgN/A
11:30 AM21 °FScattered clouds.17 mph54%30.45 "HgN/A
11:00 AM19 °FScattered clouds.15 mph63%30.45 "HgN/A
10:30 AM19 °FScattered clouds.15 mph63%30.45 "HgN/A
10:00 AM18 °FScattered clouds.15 mph68%30.45 "HgN/A
9:30 AM16 °FScattered clouds.17 mph73%30.42 "HgN/A
9:00 AM16 °FScattered clouds.17 mph73%30.42 "HgN/A
8:30 AM14 °FSunny.17 mph79%30.42 "Hg10 mi
8:00 AM14 °FClear.13 mph79%30.42 "Hg10 mi
7:30 AM14 °FPassing clouds.10 mph79%30.39 "HgN/A
7:00 AM16 °FLight snow. Passing clouds.15 mph79%30.39 "HgN/A
6:30 AM16 °FLight snow. Passing clouds.13 mph79%30.39 "HgN/A
6:00 AM18 °FLight snow. Passing clouds.13 mph79%30.39 "HgN/A
5:30 AM18 °FLight snow. Passing clouds.13 mph73%30.39 "HgN/A
5:00 AM18 °FOvercast.10 mph73%30.36 "HgN/A
4:00 AM18 °FOvercast.13 mph79%30.36 "HgN/A
3:00 AM19 °FOvercast.13 mph79%30.36 "HgN/A
2:00 AM21 °FOvercast.15 mph74%30.33 "HgN/A
1:00 AM23 °FOvercast.15 mph74%30.33 "HgN/A
12:00 AM25 °FOvercast.17 mph80%30.33 "HgN/A
11:00 PM
Sat, Mar 28
28 °FOvercast.15 mph80%30.30 "HgN/A
10:00 PM28 °FOvercast.17 mph93%30.30 "HgN/A
9:00 PM30 °FLight snow. Overcast.15 mph86%30.27 "Hg6 mi
8:00 PM34 °FOvercast.17 mph81%30.24 "HgN/A
7:30 PM36 °FLight snow. Overcast.15 mph81%30.24 "Hg6 mi
7:00 PM36 °FLight snow. Overcast.15 mph81%30.21 "Hg6 mi
6:30 PM36 °FLight snow. Overcast.15 mph81%30.21 "Hg6 mi
6:00 PM39 °FMostly cloudy.15 mph70%30.18 "HgN/A
5:30 PM39 °FMostly cloudy.17 mph75%30.18 "HgN/A
5:00 PM43 °FSunny.17 mph71%30.18 "Hg10 mi
Weather by CustomWeather, © 2015

See weather overviewHow to use our weather pages